[[{"header":{"parameterUnit":"m.s-1","parameterCategory":1,"la1":30.2992,"la2":30.254,"lo1":-89.0895,"lo2":-89.0443,"dy":0.0025,"dx":0.0025,"nx":19,"ny":19,"refTime":"2026-03-23T21:00:00:Z","depth":0,"parameterNumber":2,"parameterNumberName":"U-component_of_WINDS"},"data":[0,0,0,-5.8521,-5.8523,-5.8616,-5.8616,-5.876,-5.8762,0,0,0,0,0,0,0,0,0,0,0,-5.851,-5.8512,-5.8521,-5.8523,-5.8616,-5.8616,-5.876,-5.8762,0,0,0,0,0,0,0,0,0,0,0,-5.851,-5.8512,-5.8514,-5.8524,-5.8616,-5.8616,-5.8759,-5.868,0,0,0,0,0,0,0,0,0,0,-5.8586,-5.8593,-5.8511,-5.8514,-5.8524,-5.8616,-5.8616,-5.8676,-5.8685,-5.873,0,-5.8775,0,-5.8771,-5.8773,-5.8774,0,0,0,-5.851,-5.8585,-5.8595,-5.8514,-5.8525,-5.8616,-5.857,-5.8681,-5.8691,-5.8742,-5.8777,-5.8782,-5.8774,-5.8774,-5.8775,-5.9081,-5.9083,0,0,-5.8505,-5.8536,-5.8588,-5.8603,-5.8592,-5.8567,-5.8573,-5.8686,-5.8726,-5.8778,-5.8785,-5.8776,-5.8775,-5.8777,-5.9079,-5.9082,0,0,0,-5.8499,-5.8533,-5.8539,-5.8598,-5.8613,-5.857,-5.8577,-5.8721,-5.872,-5.8786,-5.8778,-5.8776,-5.8778,-5.9077,-5.908,-5.9211,0,0,0,-5.8495,-5.8529,-5.8538,-5.8557,-5.8611,-5.8668,-5.861,-5.8713,-5.8724,-5.8777,-5.8776,-5.878,-5.9074,-5.9079,-5.9202,-5.9266,0,0,0,-5.8498,-5.8529,-5.8549,-5.8559,-5.86,-5.8666,-5.8671,-5.8714,-5.872,-5.8774,-5.8781,-5.9073,-5.9078,-5.9194,-5.9253,-5.9355,0,0,0,-5.851,-5.8663,-5.8551,-5.8719,-5.8599,-5.8747,-5.867,-5.8779,-5.884,-5.8777,-5.9075,-5.908,-5.9192,-5.9246,-5.9347,-5.9444,-5.9488,0,0,-5.872,-5.8689,-5.8786,-5.8689,-5.8864,-5.8731,-5.8925,-5.8951,-5.8928,-5.9031,-5.9038,-5.9205,-5.9253,-5.9353,-5.9728,-5.9763,0,0,0,-5.8863,-5.8932,-5.8972,-5.9033,-5.9059,-5.9086,-5.908,-5.909,-5.9177,-5.8988,-5.9269,-5.9297,-5.9354,-5.9399,-5.9429,-5.9475,-5.9102,-5.9102,-5.9101,-5.9201,-5.9165,-5.9322,-5.9297,-5.9358,-5.9352,-5.9397,-5.9409,-5.9353,-5.9421,-5.945,-5.9682,-5.9736,-5.9758,-5.9807,-5.95,-5.9501,-5.9501,-5.9502,-5.9504,-5.9595,-5.9521,-5.9646,-5.9607,-5.9711,-5.9711,-5.9669,-5.9759,-5.9657,-5.9705,-5.9594,-5.9798,-5.9839,-5.9511,-5.951,-5.9508,-5.9507,-5.9507,-5.9719,-5.9756,-5.9768,-5.9854,-5.9924,-5.9894,-5.9985,-5.9946,-5.991,-5.9959,-5.9984,-5.9982,-5.9973,-5.9974,-5.9975,-5.9976,-5.9977,-5.9977,-5.9978,-5.9936,-5.9946,-6.0028,-6.007,-6.0105,-6.0146,-6.0143,-6.0176,-6.0202,-6.0166,-6.0166,-6.0103,-5.9826,-5.9756,-5.999,-5.9988,-5.9986,-5.9985,-5.9984,-6.0251,-6.0174,-6.0301,-6.0337,-6.0383,-6.0456,-6.0407,-6.0477,-6.0498,-6.0544,-6.0473,-6.0275,-6.024,-6.0216,-6.0157,-6.0481,-6.0481,-6.0481,-6.0481,-6.0431,-6.0411,-6.0532,-6.0591,-6.0644,-6.0614,-6.0757,-6.0758,-6.0745,-6.0756,-6.0705,-6.0625,-6.0602,-6.058,-6.0548,-6.0492,-6.0895,-6.0895,-6.0896,-6.0621,-6.0605,-6.0735,-6.0724,-6.0759,-6.0789,-6.0922,-6.0992,-6.0962,-6.0912,-6.0764,-6.0746,-6.0617,-6.0577,-6.0519,-6.047,-6.0367,0,0]},{"header":{"parameterUnit":"m.s-1","parameterCategory":1,"la1":30.2992,"la2":30.254,"lo1":-89.0895,"lo2":-89.0443,"dy":0.0025,"dx":0.0025,"nx":19,"ny":19,"refTime":"2026-03-23T21:00:00:Z","depth":0,"parameterNumber":3,"parameterNumberName":"V-component_of_WINDS"},"data":[0,0,0,1.4132,1.4132,1.4113,1.4113,1.4081,1.4081,0,0,0,0,0,0,0,0,0,0,0,1.4135,1.4134,1.4132,1.4132,1.4113,1.4113,1.4081,1.4081,0,0,0,0,0,0,0,0,0,0,0,1.4135,1.4134,1.4134,1.4131,1.4113,1.4113,1.4081,1.4098,0,0,0,0,0,0,0,0,0,0,1.4117,1.4117,1.4134,1.4134,1.4131,1.4113,1.4113,1.4099,1.4097,1.4087,0,1.4079,0,1.408,1.4078,1.4078,0,0,0,1.4133,1.4118,1.4116,1.4134,1.4131,1.4113,1.4122,1.4098,1.4095,1.4085,1.4078,1.4077,1.4079,1.4078,1.4078,1.4021,1.4021,0,0,1.4134,1.4129,1.4118,1.4115,1.4119,1.4122,1.4121,1.4096,1.4089,1.4078,1.4077,1.4078,1.4078,1.4078,1.4021,1.4021,0,0,0,1.4136,1.4129,1.4128,1.4116,1.4113,1.4122,1.412,1.409,1.409,1.4077,1.4078,1.4078,1.4077,1.4022,1.4021,1.3999,0,0,0,1.4137,1.4131,1.4129,1.4125,1.4114,1.4101,1.4114,1.4092,1.4089,1.4078,1.4078,1.4077,1.4022,1.4021,1.4001,1.3989,0,0,0,1.4137,1.4131,1.4127,1.4125,1.4117,1.4102,1.4101,1.4091,1.409,1.4078,1.4077,1.4022,1.4022,1.4002,1.3991,1.3973,0,0,0,1.4134,1.4106,1.4127,1.4096,1.4117,1.4089,1.4101,1.408,1.4068,1.4077,1.4022,1.4021,1.4002,1.3992,1.3974,1.3956,1.3948,0,0,1.4095,1.4101,1.4083,1.4101,1.4069,1.4093,1.4057,1.4049,1.4052,1.4031,1.403,1.4,1.3991,1.3973,1.3907,1.3901,0,0,0,1.4069,1.4056,1.4049,1.4038,1.4033,1.4028,1.4027,1.4025,1.4008,1.4041,1.3989,1.3984,1.3973,1.3965,1.3959,1.3951,1.4017,1.4017,1.4017,1.4003,1.4012,1.3983,1.3989,1.3978,1.3979,1.3971,1.3968,1.3977,1.3965,1.3958,1.3917,1.3907,1.3903,1.3894,1.395,1.395,1.395,1.3949,1.3946,1.3929,1.3946,1.3924,1.3932,1.3913,1.3914,1.3922,1.3905,1.3923,1.3914,1.3932,1.3896,1.3889,1.3948,1.3948,1.3948,1.3948,1.3949,1.3904,1.3897,1.3897,1.3883,1.3872,1.3879,1.3863,1.3871,1.3878,1.3869,1.3863,1.3864,1.3865,1.3866,1.3866,1.3866,1.3866,1.3866,1.3866,1.3859,1.386,1.3846,1.3841,1.3836,1.3831,1.3834,1.3828,1.3825,1.3831,1.3831,1.3842,1.3892,1.3904,1.3864,1.3864,1.3864,1.3864,1.3865,1.3797,1.3813,1.3792,1.3787,1.3783,1.3771,1.3783,1.3773,1.377,1.3762,1.3775,1.3811,1.3817,1.3821,1.3831,1.3774,1.3774,1.3774,1.3774,1.376,1.3765,1.3746,1.3739,1.3732,1.3741,1.3717,1.372,1.3724,1.3723,1.3733,1.3747,1.3751,1.3754,1.376,1.3769,1.3698,1.3698,1.3698,1.3722,1.3727,1.3705,1.3712,1.371,1.3708,1.3686,1.3675,1.3684,1.3695,1.3722,1.3725,1.3749,1.3756,1.3765,1.3773,1.3791,0,0]}]]